Location: Miss�
(46.9484°N, 0.1922°W)
Time: 00:11:01
(UTC+00:00)

BREEZE-M DEB (TANK) - Pass Details

Date: 02 March 2021
Orbit: 308 x 15402 km, 49.5° (Epoch: 20 April)

Event Time Altitude Azimuth Distance (km) Brightness Sun altitude
Rises 20:03:08 0° 284° (WNW) 2,137 6.8 -23.7°
Reaches altitude 10° 20:04:30 10° 288° (WNW) 1,463 5.6 -23.9°
Enters shadow 20:07:11 66° 8° (N) 670 2.6 -24.3°
